When you browse on this site, cookies collect data to enhance your experience and personalize the content and advertising you see.
Visit our Privacy Policy to learn more. By continuing to use the site, you agree to this use of cookies and data.
  • In Hungary
  • List of Countries
  • For 7 days
  • Water Temperature
  • Satellite Maps
  • Weather Map
  • News
  • Weather Widgets
  • user-avatar
    Login

    Hourly Weather Guanare

    Today, 22 January, Tuesday

    Time Temperature Precipitation Wind Pressure Humidity
    00:00 +27°C° 0 mm 1 mps 743 mmHg 61%
    01:00 +26°C° 0 mm 1 mps 743 mmHg 61%
    02:00 +26°C° 0 mm 1 mps 743 mmHg 61%
    03:00 +26°C° 0 mm 1 mps 744 mmHg 60%
    04:00 +26°C° 0 mm 1 mps 744 mmHg 60%
    05:00 +26°C° 0 mm 1 mps 744 mmHg 60%
    06:00 +26°C° 0 mm 1 mps 744 mmHg 60%
    07:00 +27°C° 0 mm 1 mps 745 mmHg 60%
    08:00 +28°C° 0 mm 1 mps 745 mmHg 57%
    09:00 +29°C° 0 mm 1 mps 745 mmHg 55%
    10:00 +31°C° 0 mm 2 mps 745 mmHg 52%
    11:00 +32°C° 0 mm 2 mps 744 mmHg 48%
    12:00 +34°C° 0 mm 2 mps 744 mmHg 45%
    13:00 +35°C° 0 mm 2 mps 743 mmHg 41%
    14:00 +35°C° 0 mm 2 mps 742 mmHg 40%
    15:00 +35°C° 0 mm 2 mps 742 mmHg 40%
    16:00 +35°C° 0 mm 2 mps 741 mmHg 39%
    17:00 +32°C° 0 mm 2 mps 742 mmHg 44%
    18:00 +30°C° 0 mm 2 mps 742 mmHg 50%
    19:00 +28°C° 0 mm 1 mps 742 mmHg 55%
    20:00 +27°C° 0 mm 1 mps 742 mmHg 56%
    21:00 +27°C° 0 mm 1 mps 743 mmHg 58%
    22:00 +26°C° 0 mm 1 mps 743 mmHg 59%
    23:00 +26°C° 0 mm 1 mps 743 mmHg 58%

    Tomorrow, 23 January, Wednesday

    Time Temperature Precipitation Wind Pressure Humidity
    00:00 +26°C° 0 mm 1 mps 743 mmHg 58%
    01:00 +26°C° 0 mm 1 mps 743 mmHg 58%
    02:00 +25°C° 0 mm 1 mps 743 mmHg 59%
    03:00 +25°C° 0 mm 1 mps 743 mmHg 60%
    04:00 +24°C° 0 mm 1 mps 743 mmHg 61%
    05:00 +25°C° 0 mm 1 mps 744 mmHg 61%
    06:00 +25°C° 0 mm 1 mps 744 mmHg 61%
    07:00 +25°C° 0 mm 1 mps 745 mmHg 61%
    08:00 +27°C° 0 mm 1 mps 745 mmHg 56%
    09:00 +30°C° 0 mm 2 mps 745 mmHg 50%
    10:00 +32°C° 0 mm 2 mps 745 mmHg 45%
    11:00 +34°C° 0 mm 2 mps 745 mmHg 42%
    12:00 +34°C° 0 mm 2 mps 744 mmHg 40%
    13:00 +35°C° 0 mm 2 mps 743 mmHg 38%
    14:00 +35°C° 0 mm 2 mps 742 mmHg 37%
    15:00 +35°C° 0 mm 2 mps 741 mmHg 37%
    16:00 +35°C° 0 mm 2 mps 741 mmHg 37%
    17:00 +32°C° 0 mm 2 mps 741 mmHg 42%
    18:00 +30°C° 0 mm 2 mps 741 mmHg 46%
    19:00 +28°C° 0 mm 2 mps 741 mmHg 50%
    20:00 +28°C° 0 mm 2 mps 742 mmHg 49%
    21:00 +27°C° 0 mm 2 mps 742 mmHg 48%
    22:00 +27°C° 0 mm 2 mps 743 mmHg 47%
    23:00 +26°C° 0 mm 2 mps 743 mmHg 50%

    Day after tomorrow, 24 January, Thursday

    Time Temperature Precipitation Wind Pressure Humidity
    00:00 +26°C° 0 mm 2 mps 743 mmHg 53%
    01:00 +26°C° 0 mm 1 mps 743 mmHg 56%
    02:00 +25°C° 0 mm 1 mps 743 mmHg 59%
    03:00 +25°C° 0 mm 1 mps 743 mmHg 63%
    04:00 +24°C° 0 mm 1 mps 742 mmHg 66%
    05:00 +25°C° 0 mm 1 mps 743 mmHg 64%
    06:00 +25°C° 0 mm 1 mps 744 mmHg 63%
    07:00 +26°C° 0 mm 2 mps 744 mmHg 61%
    08:00 +28°C° 0 mm 2 mps 744 mmHg 55%
    09:00 +30°C° 0 mm 2 mps 745 mmHg 49%
    10:00 +32°C° 0 mm 2 mps 745 mmHg 44%
    11:00 +34°C° 0 mm 2 mps 744 mmHg 40%
    12:00 +35°C° 0 mm 2 mps 743 mmHg 37%
    13:00 +36°C° 0 mm 2 mps 742 mmHg 34%
    14:00 +36°C° 0 mm 2 mps 741 mmHg 34%
    15:00 +36°C° 0 mm 2 mps 740 mmHg 33%
    16:00 +35°C° 0 mm 1 mps 740 mmHg 33%
    17:00 +33°C° 0 mm 1 mps 740 mmHg 38%
    18:00 +31°C° 0 mm 1 mps 741 mmHg 43%
    19:00 +29°C° 0 mm 1 mps 741 mmHg 49%
    20:00 +28°C° 0 mm 1 mps 742 mmHg 50%
    21:00 +27°C° 0 mm 1 mps 742 mmHg 51%
    22:00 +27°C° 0 mm 2 mps 743 mmHg 53%
    23:00 +27°C° 0 mm 2 mps 743 mmHg 53%

    25 January, Friday

    Time Temperature Precipitation Wind Pressure Humidity
    00:00 +26°C° 0 mm 2 mps 743 mmHg 54%
    01:00 +26°C° 0 mm 2 mps 742 mmHg 55%
    02:00 +26°C° 0 mm 1 mps 742 mmHg 57%
    03:00 +25°C° 0 mm 1 mps 742 mmHg 59%
    04:00 +25°C° 0 mm 1 mps 742 mmHg 60%
    05:00 +25°C° 0 mm 1 mps 743 mmHg 61%
    06:00 +26°C° 0 mm 1 mps 743 mmHg 61%
    07:00 +26°C° 0 mm 1 mps 744 mmHg 61%
    08:00 +28°C° 0 mm 2 mps 744 mmHg 56%
    09:00 +30°C° 0 mm 2 mps 744 mmHg 52%
    10:00 +31°C° 0 mm 2 mps 745 mmHg 48%
    11:00 +34°C° 0 mm 2 mps 744 mmHg 44%
    12:00 +35°C° 0 mm 2 mps 743 mmHg 40%
    13:00 +36°C° 0 mm 2 mps 742 mmHg 36%
    14:00 +36°C° 0 mm 2 mps 741 mmHg 35%
    15:00 +36°C° 0 mm 2 mps 740 mmHg 35%
    16:00 +36°C° 0 mm 2 mps 739 mmHg 34%
    17:00 +34°C° 0 mm 2 mps 739 mmHg 39%
    18:00 +31°C° 0 mm 1 mps 740 mmHg 44%
    19:00 +29°C° 0 mm 1 mps 740 mmHg 49%
    20:00 +28°C° 0 mm 1 mps 741 mmHg 51%
    21:00 +27°C° 0 mm 1 mps 741 mmHg 53%
    22:00 +27°C° 0 mm 1 mps 742 mmHg 55%
    23:00 +26°C° 0 mm 1 mps 742 mmHg 57%

    26 January, Saturday

    Time Temperature Precipitation Wind Pressure Humidity
    00:00 +26°C° 0 mm 1 mps 742 mmHg 58%
    01:00 +26°C° 0 mm 1 mps 741 mmHg 59%
    02:00 +25°C° 0 mm 1 mps 741 mmHg 59%
    03:00 +25°C° 0 mm 1 mps 741 mmHg 60%
    04:00 +25°C° 0 mm 1 mps 741 mmHg 61%
    05:00 +25°C° 0 mm 1 mps 742 mmHg 61%
    06:00 +25°C° 0 mm 1 mps 743 mmHg 61%
    07:00 +26°C° 0 mm 1 mps 743 mmHg 61%
    08:00 +28°C° 0 mm 1 mps 744 mmHg 55%
    09:00 +30°C° 0 mm 2 mps 744 mmHg 50%
    10:00 +32°C° 0 mm 2 mps 744 mmHg 45%
    11:00 +34°C° 0 mm 2 mps 743 mmHg 41%
    12:00 +36°C° 0 mm 2 mps 742 mmHg 38%
    13:00 +37°C° 0 mm 2 mps 741 mmHg 35%
    14:00 +37°C° 0 mm 2 mps 740 mmHg 34%
    15:00 +36°C° 0 mm 2 mps 740 mmHg 34%
    16:00 +35°C° 0 mm 1 mps 739 mmHg 34%
    17:00 +33°C° 0 mm 1 mps 739 mmHg 39%
    18:00 +31°C° 0 mm 1 mps 739 mmHg 44%
    19:00 +29°C° 0 mm 1 mps 740 mmHg 48%
    20:00 +29°C° 0 mm 1 mps 740 mmHg 51%
    21:00 +28°C° 0 mm 1 mps 741 mmHg 53%
    22:00 +28°C° 0 mm 1 mps 741 mmHg 55%
    23:00 +27°C° 0 mm 1 mps 741 mmHg 57%

    27 January, Sunday

    Time Temperature Precipitation Wind Pressure Humidity
    00:00 +27°C° 0 mm 1 mps 741 mmHg 58%
    01:00 +26°C° 0 mm 1 mps 741 mmHg 60%
    02:00 +26°C° 0 mm 1 mps 740 mmHg 61%
    03:00 +25°C° 0 mm 1 mps 740 mmHg 62%
    04:00 +25°C° 0 mm 1 mps 740 mmHg 63%
    05:00 +25°C° 0 mm 1 mps 741 mmHg 62%
    06:00 +25°C° 0 mm 1 mps 742 mmHg 62%
    07:00 +26°C° 0 mm 1 mps 742 mmHg 62%
    08:00 +28°C° 0 mm 1 mps 742 mmHg 56%
    09:00 +30°C° 0 mm 2 mps 743 mmHg 50%
    10:00 +32°C° 0 mm 2 mps 743 mmHg 44%
    11:00 +35°C° 0 mm 2 mps 742 mmHg 40%
    12:00 +36°C° 0 mm 2 mps 741 mmHg 37%
    13:00 +37°C° 0 mm 2 mps 740 mmHg 33%
    14:00 +37°C° 0 mm 2 mps 739 mmHg 33%
    15:00 +37°C° 0 mm 2 mps 739 mmHg 33%
    16:00 +37°C° 0 mm 2 mps 738 mmHg 33%
    17:00 +34°C° 0 mm 1 mps 739 mmHg 38%
    18:00 +32°C° 0 mm 1 mps 739 mmHg 43%
    19:00 +30°C° 0 mm 1 mps 739 mmHg 48%
    20:00 +29°C° 0 mm 1 mps 740 mmHg 50%
    21:00 +28°C° 0 mm 1 mps 740 mmHg 53%
    22:00 +28°C° 0 mm 1 mps 741 mmHg 55%
    23:00 +27°C° 0 mm 1 mps 741 mmHg 57%
    Show more